Погода Чапаево

Погода Чапаево : погода сейчас, прогноз погоды и архив. Всё, что Вы хотите узнать о погоде Чапаево!

Поиск расширенной информации на нашем сайте:

Другие новости

Новости СМИ2

Главная страница сайта

Новости сайта

02.10.2013

Напоминаем, что на нашем новом сайте вы можете получить высокодетализированные прогнозы погоды по пунктам России, СНГ и мира (включающие важные для авиации метеовеличины, такие как направление и скорость ветра, видимость, явления погоды, количество и форма облачности, нижняя и верхняя граница облачности), а также ознакомиться с разнообразными материалами по авиационной метеорологии и подборкой полезных ссылок на эту тему.

Сайт Метеоцентр.Азия посвящён разработке технологий оптимизации авиаметеорологического обслуживания, включая проектирование и перспективное создание нескольких автоматизированных авиаметеорологических систем:
- система выпуска высокодетальных прогностических карт явлений погоды для нижнего воздушного пространства по России и ближнему зарубежью;
- система верификации прогнозов TAF (выпускаемых синоптиками официальных АМСГ РФ и ближнего зарубежья) и AUTOTAF (выпускаемых сайтом Метеоцентр.Азия) - выявление ошибок, онлайн-сопоставление с фактической погодой METAR, автоматическое внесение коррективов в прогнозы при резком отклонении фактической погоды от прогноза, подсчёт оправдываемости прогнозов по элементам и в целом;
- система обработки, анализа и отображения авиаметеорологической информации для применения провайдерами метеорологической информации.

Рекомендуем: Капсулы яблочный уксус - по низким ценам!

Погода Чапаево - сегодня

Время (UTC), дата Ветер
(°,м/с) 
Видим.   Явления Облачность Т
(°С)
Тd
(°С)
f(%) Тe
(°С)
Pmin
(гПа)
dP
(гПа)
Po
(мм)
O2
(г/м3)
Тmin Tmax R s Состояние
почвы
21 17.01.17 140 (ЮВ) н/о    ясно 
-20 -22.6 80 -23  1032.3  -0.2  773  338           
00 18.01.17 140 (ЮВ) н/о    3/0 верхняя 
[Ci fib]
-22.2 -24.7 80 -23  1032.2  -0.1  772  341           
03 18.01.17 140 (ЮВ) н/о    8/0 средняя 
[Ac und]
-20.2 -22.8 80 -20  1032  -0.2  772  338        26  равномерный
сухой снег
100% 
06 18.01.17 тихо ()   20000 м    8/0 средняя 
[Ac und]
-18.2 -20.8 80 -18  1032.2  0.4  773  335  -22.2         
09 18.01.17 тихо ()   20000 м    6/0 средняя 
[Ac trans]
-15 -18.4 75 -15  1032.1  -0.1  772  330           
12 18.01.17 320 (СЗ) 20000 м    6/0 верхняя 
[Ci fib]
-15.8 -18.5 80 -16  1032.2  0.1  773  332           
15 18.01.17 320 (СЗ) н/о    4/0 средняя 
[Ac trans]
-19.5 -21.4 85 -22  1032.3  0.1  773  337    -14.9       
18 18.01.17 340 (С) н/о    ясно 
-21.6 -23.4 85 -22  1032.8  0.5  773  340    -14.9       
21 18.01.17 тихо ()   н/о    3/0 верхняя 
[Frnb|Ci]
-21.2 -23 85 -21  1032.3  -0.7  773  339           
00 19.01.17 тихо ()   н/о    8/0 верхняя 
[Cs]
-20 -21.9 85 -20  1032.1  773  338           
03 19.01.17 340 (С) н/о  дымка  9/0 верхняя 
[Cs]
-21 -22.9 85 -25  1031.6  -0.5  772  339        26  равномерный
сухой снег
100% 
06 19.01.17 290 (З) 20000 м    6/0 средняя 
[Ac trans]
-20.5 -22.4 85 -21  1031.9  0.3  772  338  -21.6         
09 19.01.17 270 (З) 10 км  слаб. снег  10/0 средняя 
[As trans]
-13.6 -15.6 85 -16  1031.4  -0.5  772  329           
12 19.01.17 270 (З) 20000 м  {снег}  4/0 верхняя 
[Ci fib]
-14.4 -16.4 85 -17  1030.6  -0.8  771  330           
15 19.01.17 270 (З) н/о    ясно 
-17.2 -19.1 85 -20  1030.1  -0.5  771  333    -13.6  0.0     
18 19.01.17 тихо ()   н/о  переохл. туман  ?/?  
-19 -20.2 90 -19  1029.6  -0.7  770  335    -13.6  0.0     
21 19.01.17 250 (З) н/о  {туман}  10/0 средняя 
[Ac As]
-16.2 -18.1 85 -16  1028.2  -1.4  769  331           
00 20.01.17 250 (З) н/о  {туман}  8/0 средняя 
[Ac und]
-14.8 -16.8 85 -17  1026.4  -1.7  768  329           
03 20.01.17 250 (З) н/о    10/0 средняя 
[Ac As]
-14.4 -16.4 85 -17  1024.8  -1.6  767  328        26  равномерный
сухой снег
100% 
06 20.01.17 290 (З) 20000 м    10/0 средняя 
[Ac As]
-14.6 -16.6 85 -20  1022.5  -2.1  765  327  -19         
09 20.01.17 250 (З) 12{16}  20000 м  позёмок  8/8 600 м 
[Sc]
-12.4 -13.7 90 -21  1020.3  -2.4  764  324           
12 20.01.17 250 (З) 12  1000 м  метель  10/10 300 м 
[St]
-9 -10.1 92 -17  1016.8  -3.5  761  318           
15 20.01.17 250 (З) 12  н/о  слаб. снег  10/10 600 м 
[Ns]
-8 -9 93 -15  1015.2  -1.6  760  316    -7.9  0.0     
18 20.01.17 270 (З) н/о  позёмок{снег}  10/10 600 м 
[Sc]
-7 -7.9 93 -13  1013.9  -1.3  759  315    -7.9  0.0     
21 20.01.17 290 (З) н/о    10/10 600 м 
[Sc]
-7.2 -8.1 93 -13  1013.3  -0.6  758  315           
Время (UTC), дата Ветер
(°,м/с) 
Видим.   Явления Облачность Т
(°С)
Тd
(°С)
f(%) Тe
(°С)
Pmin
(гПа)
dP
(гПа)
Po
(мм)
O2
(г/м3)
Тmin Tmax R s Состояние
почвы

Для получения пояснительной информации подведите курсор к названию столбца.

ПОГОДА Чапаево - архив

Всё, что Вы хотите узнать о погоде Чапаево - удобно и подробно!

Выберите нужную дату (начиная с 1 января 2015* года) и нажмите кнопку "Найти".
Будут отображены архивные сводки погоды по пункту Чапаево, начиная с указанной даты.


Отображать данные в формате CSV (для использования в таблицах Excel)


Внимание! Наш архив погоды предназначен исключительно для личного некоммерческого использования в познавательных целях. Если Вам необходимы официальные справки о состоянии погоды (для производственных, юридических, коммерческих и т.п. целей), обращайтесь в органы Росгидромета.

*Примечание: данная дата относится к архиву по метеостанциям СССР (Россия, СНГ, Балтия).
Архив по метеостанциям Зарубежной Европы и Азии (кроме Китая) хранится 10 дней, по другим регионам земного шара (Китай, Африка, Америка, Австралия, Океания) - 1 день.

Чапаево - район местоположения метеостанции


Название, широта, долгота, высота метеостанции:
Чапаево 50.2°ш. 51.2°д. 17 м над ур. моря [Казахстан]

Дополнительная информация

В oтличие oт бoльшинства пoгoдных сайтoв мы публикуем пoдрoбную метеoинфoрмацию в детальнoм прoфессиoнальнoм фoрмате.

Характеристики температуры и влажнoсти вoздуха измеряются на высoте 2 м в тени вдали oт зданий и деревьев.
Скoрoсть ветра измеряется на высoте 10 м (на урoвне рoста челoвека скoрoсть ветра ниже в 1.5-2 раза). Если метеoстанция нахoдится в гoрoде или в лесу, тo скoрoсть ветра занижена на 2-4 м/с пo сравнению с oткрытым местoм. Скoрoсть ветра над акватoриями крупных рек и oзёр, а также на вершинах хoлмoв на 2-5 м/с выше, чем в oбычных услoвиях.
Атмoсфернoе давление в разных тoчках местнoсти мoжет значительнo oтличаться oт давления на метеoстанции, в зависимoсти oт услoвий рельефа (при пoдъёме на 10 м давление пoнижается примернo на 1 мм рт.ст.).